OneWeb SL0027

operational
NORAD ID: 45432 Int'l Des: 2020-020 Owner: ONEWEB Country: UK Constellation: oneweb
LEOCIRCULARPOLARONEWEB_TYPE

About OneWeb SL0027

Description loading...

Live Position

Loading 3D Globe...

Upcoming Passes

Altitude History

Altitude vs Time

uPlot chart will show altitude changes over time

Two-Line Element Set

1 45432U 20020J 26034.50634259 -.00000003 00000-0 -40196-4 0 9990
2 45432 87.9101 32.3997 0002022 99.5653 260.5707 13.17650290288753
Epoch: Feb 3, 2026 • Age: 14 hours

Current Status

Altitude 1218.6 km
Velocity 7.24 km/s
Sub-Earth Point -61.42°S, 49.89°E
Launch Date Mar 21, 2020
Age 5.8 years
Type internet

Technical Details

Classification Payload
Mass 148.00 kg
Dry Mass 140.00 kg
Total Mass 148.00 kg
Length 1.30 m
Diameter 1.00 m
Span 5.00 m
Shape Trapezoid+2 pan
Manufacturer ONEWUS
Bus Type ARROW
Phase Status In Orbit
Owner/State ONEWEB/UK

Large Constellations

Loading constellations...